Flag for Germany Weather past 2 weeks in Bocholt, North Rhine-Westphalia, Germany

Now
55 °F

Clear.


Feels Like: 55 °F
Forecast: 47 / 60 °F
Wind: 5 mph from Northwest

Location: Niederrhein

Current Time: Sep 22, 2014 at 12:23:37 AM

Latest Report: Sep 21, 2014 at 10:50 PM


Visibility: 10 mi

Pressure: 30.12 "Hg

Humidity: 88%

Dew point: 52 °F

Location of BocholtLocation

Historic Weather in Bocholt — Graph

°F

Bocholt temperature yesterday

Maximum temperature yesterday: 66 °F (at 2:20 PM)
Minimum temperature yesterday: 55 °F (at 9:20 PM)
Average temperature yesterday: 61 °F

Past Weeks' High & Low Weather Summary

 TemperatureHumidityPressure
High79 °F (Sep 17, 3:50 PM)100% (Sep 7, 4:50 AM)30.27 "Hg (Sep 7, 4:50 AM)
Low50 °F (Sep 9, 5:20 AM)43% (Sep 8, 5:20 PM)29.83 "Hg (Sep 18, 4:50 AM)
Average63 °F80%30.04 "Hg
* Reported Sep 6 10:20 PM — Sep 21 10:50 PM, Bocholt, Weather by CustomWeather, © 2014

Note: Actual official high and low records may vary slightly from our data, if they occured in-between our weather recording intervals... More about our weather records

Advertising

Bocholt weather history for previous 24 hours

 ConditionsComfort  
Time TempWeatherWind HumidityBarometerVisibility
10:50 PM
Sep 21
55 °FClear.5 mph88%30.12 "Hg10 mi
10:20 PM55 °FPassing clouds.5 mph88%30.12 "HgN/A
9:50 PM55 °FPassing clouds.6 mph82%30.12 "HgN/A
9:20 PM55 °FPartly sunny.3 mph82%30.12 "HgN/A
8:50 PM57 °FSunny.3 mph77%30.09 "Hg10 mi
8:20 PM57 °FPassing clouds.5 mph77%30.09 "HgN/A
7:50 PM59 °FPassing clouds.5 mph72%30.09 "HgN/A
7:20 PM59 °FPassing clouds.6 mph72%30.09 "HgN/A
6:50 PM61 °FPassing clouds.7 mph68%30.09 "HgN/A
6:20 PM61 °FSunny.7 mph68%30.07 "Hg10 mi
5:50 PM63 °FSunny.9 mph59%30.07 "Hg10 mi
5:20 PM63 °FSunny.6 mph64%30.07 "Hg10 mi
4:50 PM63 °FSunny.7 mph59%30.07 "Hg10 mi
4:20 PM66 °FSunny.9 mph52%30.07 "Hg10 mi
3:50 PM64 °FPassing clouds.8 mph52%30.04 "HgN/A
3:20 PM64 °FSunny.6 mph56%30.07 "Hg10 mi
2:50 PM64 °FScattered clouds.9 mph56%30.04 "HgN/A
2:20 PM66 °FScattered clouds.7 mph56%30.07 "HgN/A
1:50 PM64 °FScattered clouds.8 mph56%30.07 "HgN/A
1:20 PM64 °FScattered clouds.7 mph60%30.07 "HgN/A
12:50 PM63 °FScattered clouds.6 mph77%30.04 "HgN/A
12:20 PM63 °FPartly sunny.8 mph77%30.04 "HgN/A
11:50 AM63 °FScattered clouds.9 mph73%30.04 "HgN/A
11:20 AM63 °FScattered clouds.5 mph83%30.04 "HgN/A
10:50 AM61 °FScattered clouds.6 mph88%30.04 "HgN/A
10:20 AM61 °FPartly sunny.5 mph94%30.04 "HgN/A
9:50 AM61 °FPartly sunny.5 mph100%30.01 "Hg6 mi
9:20 AM59 °FDrizzle. Partly sunny.5 mph100%30.01 "Hg6 mi
8:50 AM59 °FPassing clouds.3 mph100%30.01 "HgN/A
8:20 AM59 °FPassing clouds.3 mph94%29.98 "HgN/A
7:50 AM61 °FDrizzle. Fog.5 mph100%29.98 "Hg3 mi
7:20 AM61 °FFog.3 mph100%29.98 "Hg3 mi
6:50 AM61 °FFog.3 mph100%29.98 "Hg3 mi
6:20 AM61 °FFog.2 mph100%29.98 "Hg2 mi
5:50 AM61 °FFog.2 mph100%29.98 "Hg2 mi
5:20 AM61 °FFog.2 mph100%29.98 "Hg2 mi
4:50 AM61 °FFog.2 mph100%29.98 "Hg2 mi
Weather by CustomWeather, © 2014

See weather overviewHow to use our weather pages